SCP
0 0 0 0 0 0 0 0 0 0 0 0 0 0 0 0 0 0 0 0 0 0
0 0 0 0 0 0 0 0 0 0 0 0 0 0 0 0 0 0 0 0 0 0
0 0 0 0 0 0 0 0 0 0 0 0 0 0 0 0 0 0 0 0 0 0
0 0 0 0 0 0 0 0 0 0 0 0 0 0 0 0 0 0 0 0 0 0
0 0 0 0 0 0 0 0 0 0 0 0 0 0 0 0 0 0 0 0 0 0
0 0 0 0 0 0 0 0 0 0 0 0 0 0 0 0 0 0 0 0 0 0
0 0 0 0 0 0 0 0 0 0 0 0 0 0 0 0 0 0 0 0 0 0
0 0 0 0 0 0 0 0 0 0 0 0 0 0 0 0 0 0 0 0 0 0
0 0 0 0 0 0 0 0 0 0 0 0 0 0 0 0 0 0 0 0 0 0
0 0 0 0 0 0 0 0 0 0 0 0 0 0 0 0 0 0 0 0 0 0
0 0 0 0 0 0 0 0 0 0 0 0 0 0 0 0 0 0 0 0 0 0
0 0 0 0 0 0 0 0 0 0 0 0 0 0 0 0 0 0 0 0 0 0
0 0 0 0 0 0 0 0 0 0 0 0 0 0 0 0 0 0 0 0 0 0
0 0 0 0 0 0 0 0 0 0 0 0 0 0 0 0 0 0 0 0 0 0
Wind_Speed_500mb
19 17 13 12 11 8 8 10 13 14 16 18 20 23 25 28 30 32 34 37 39 40
19 14 10 9 6 5 7 9 13 17 20 21 23 25 28 31 33 36 39 41 45 49
16 12 8 3 3 5 9 13 16 20 23 26 29 33 34 37 40 42 45 50 53 57
17 13 9 4 2 7 11 16 21 25 28 32 34 38 40 44 48 52 55 58 62 65
21 16 10 7 6 10 16 21 26 31 33 34 37 40 45 48 52 57 61 65 67 69
25 18 16 15 14 16 19 24 29 33 36 37 41 44 49 54 59 63 66 68 70 72
29 25 23 24 23 23 24 28 33 37 41 43 44 48 52 57 62 63 66 68 71 74
33 32 33 33 33 32 32 35 38 41 44 45 46 49 54 57 61 65 69 71 72 74
41 40 40 42 41 41 40 41 40 42 47 49 49 52 55 59 64 68 72 76 76 75
47 48 49 50 50 49 46 45 43 45 50 53 54 56 58 62 68 72 73 76 76 75
54 55 58 59 57 56 51 48 45 47 53 59 56 58 60 65 69 70 71 71 70 69
54 58 61 62 60 59 55 51 47 49 55 59 58 58 60 64 66 67 68 68 67 62
48 50 56 61 61 59 55 52 50 54 60 59 56 57 60 61 61 65 65 62 60 55
48 47 52 58 59 56 54 54 56 61 61 56 55 56 59 56 55 53 54 52 56 57
Wind_Direction_500mb
143 145 140 132 114 93 61 20 7 355 351 345 340 338 337 335 333 332 331 329 327 323
161 160 153 139 111 60 13 355 346 340 336 334 332 331 330 328 327 326 325 323 322 319
176 172 163 144 64 16 2 343 335 327 322 323 327 327 327 326 326 326 325 325 323 321
197 197 206 214 322 337 338 337 332 325 323 323 325 324 325 326 327 327 327 326 324 321
207 213 223 252 292 317 328 329 325 320 317 316 318 320 321 322 323 323 323 322 320 318
216 227 240 256 275 294 309 317 319 317 315 315 319 321 321 323 323 322 322 321 320 318
226 237 248 259 269 279 295 306 311 314 316 315 317 317 318 319 319 320 320 319 317 314
233 243 253 262 268 276 286 295 301 309 313 311 311 312 314 317 318 319 318 316 314 312
239 249 258 264 270 277 281 285 290 301 308 307 307 310 314 317 319 319 318 316 313 312
245 254 261 266 270 272 272 276 285 297 307 308 308 310 313 316 318 318 317 314 312 311
249 258 265 268 269 266 267 273 284 296 305 308 305 306 310 314 316 315 313 311 311 311
256 263 267 267 266 263 266 274 284 294 301 302 300 303 308 313 314 313 312 313 313 316
261 265 267 266 264 264 270 278 285 293 299 297 297 302 309 314 314 312 309 311 316 315
256 264 269 267 265 267 273 279 284 293 294 292 296 302 308 311 310 309 310 311 311 313
Wind_Speed_850mb
19 17 13 12 11 8 8 10 13 14 16 18 20 23 25 28 30 32 34 37 39 40
19 14 10 9 6 5 7 9 13 17 20 21 23 25 28 31 33 36 39 41 45 49
16 12 8 3 3 5 9 13 16 20 23 26 29 33 34 37 40 42 45 50 53 57
17 13 9 4 2 7 11 16 21 25 28 32 34 38 40 44 48 52 55 58 62 65
21 16 10 7 6 10 16 21 26 31 33 34 37 40 45 48 52 57 61 65 67 69
25 18 16 15 14 16 19 24 29 33 36 37 41 44 49 54 59 63 66 68 70 72
29 25 23 24 23 23 24 28 33 37 41 43 44 48 52 57 62 63 66 68 71 74
33 32 33 33 33 32 32 35 38 41 44 45 46 49 54 57 61 65 69 71 72 74
41 40 40 42 41 41 40 41 40 42 47 49 49 52 55 59 64 68 72 76 76 75
47 48 49 50 50 49 46 45 43 45 50 53 54 56 58 62 68 72 73 76 76 75
54 55 58 59 57 56 51 48 45 47 53 59 56 58 60 65 69 70 71 71 70 69
54 58 61 62 60 59 55 51 47 49 55 59 58 58 60 64 66 67 68 68 67 62
48 50 56 61 61 59 55 52 50 54 60 59 56 57 60 61 61 65 65 62 60 55
48 47 52 58 59 56 54 54 56 61 61 56 55 56 59 56 55 53 54 52 56 57
Wind_Direction_850mb
143 145 140 132 114 93 61 20 7 355 351 345 340 338 337 335 333 332 331 329 327 323
161 160 153 139 111 60 13 355 346 340 336 334 332 331 330 328 327 326 325 323 322 319
176 172 163 144 64 16 2 343 335 327 322 323 327 327 327 326 326 326 325 325 323 321
197 197 206 214 322 337 338 337 332 325 323 323 325 324 325 326 327 327 327 326 324 321
207 213 223 252 292 317 328 329 325 320 317 316 318 320 321 322 323 323 323 322 320 318
216 227 240 256 275 294 309 317 319 317 315 315 319 321 321 323 323 322 322 321 320 318
226 237 248 259 269 279 295 306 311 314 316 315 317 317 318 319 319 320 320 319 317 314
233 243 253 262 268 276 286 295 301 309 313 311 311 312 314 317 318 319 318 316 314 312
239 249 258 264 270 277 281 285 290 301 308 307 307 310 314 317 319 319 318 316 313 312
245 254 261 266 270 272 272 276 285 297 307 308 308 310 313 316 318 318 317 314 312 311
249 258 265 268 269 266 267 273 284 296 305 308 305 306 310 314 316 315 313 311 311 311
256 263 267 267 266 263 266 274 284 294 301 302 300 303 308 313 314 313 312 313 313 316
261 265 267 266 264 264 270 278 285 293 299 297 297 302 309 314 314 312 309 311 316 315
256 264 269 267 265 267 273 279 284 293 294 292 296 302 308 311 310 309 310 311 311 313